timestamp,wind_dir_avg,wind_spd_avg,wind_spd_max_dir,wind_spd_gust,battery_voltage,lat,long
2024-03-09 12:14:00+00:00,33.0,17.56,33.0,20.34,12.09,47.59359,-54.27349
2024-03-09 12:24:00+00:00,35.0,17.03,37.0,20.95,12.09,47.59359,-54.27349
2024-03-09 12:34:00+00:00,34.0,18.04,31.0,22.57,12.09,47.59359,-54.27349
2024-03-09 12:44:00+00:00,34.0,18.9,33.0,22.57,12.09,47.59359,-54.27349
2024-03-09 12:54:00+00:00,37.0,17.75,40.0,20.63,12.09,47.59359,-54.27349
2024-03-09 13:04:00+00:00,35.0,16.42,37.0,19.83,12.09,47.59359,-54.27349
2024-03-09 13:14:00+00:00,35.0,17.2,41.0,20.31,13.05,47.59359,-54.27349
2024-03-09 13:24:00+00:00,36.0,17.89,34.0,21.48,13.05,47.59359,-54.27349
2024-03-09 13:34:00+00:00,32.0,17.75,33.0,20.83,13.05,47.59359,-54.27349
2024-03-09 13:44:00+00:00,35.0,15.99,33.0,19.22,13.05,47.59359,-54.27349
2024-03-09 13:54:00+00:00,39.0,18.11,34.0,20.65,13.05,47.59359,-54.27349
2024-03-09 14:04:00+00:00,35.0,16.83,39.0,20.66,13.05,47.59359,-54.27349
2024-03-09 14:14:01+00:00,35.0,15.85,46.0,19.74,13.68,47.59359,-54.27349
2024-03-09 14:24:01+00:00,34.0,14.84,34.0,16.99,13.68,47.59359,-54.27349
2024-03-09 14:34:01+00:00,36.0,16.75,33.0,19.02,13.68,47.59359,-54.27349
2024-03-09 14:44:01+00:00,33.0,17.19,44.0,19.15,13.68,47.59359,-54.27349
2024-03-09 14:54:01+00:00,32.0,16.03,31.0,19.69,13.68,47.59359,-54.27349
2024-03-09 15:04:01+00:00,34.0,17.41,33.0,19.96,13.68,47.59359,-54.27349
2024-03-09 15:14:01+00:00,35.0,16.65,40.0,20.06,13.68,47.59359,-54.27349
2024-03-09 15:24:01+00:00,32.0,17.04,36.0,21.33,13.68,47.59359,-54.27349
2024-03-09 15:34:01+00:00,36.0,15.88,34.0,18.37,13.68,47.59359,-54.27349
2024-03-09 15:44:01+00:00,31.0,17.41,32.0,19.74,13.68,47.59359,-54.27349
2024-03-09 15:54:01+00:00,35.0,16.62,33.0,18.97,13.68,47.59359,-54.27349
2024-03-09 16:04:01+00:00,34.0,16.25,31.0,18.36,13.68,47.59359,-54.27349
2024-03-09 16:14:00+00:00,35.0,17.12,44.0,20.46,13.53,47.59359,-54.27349
2024-03-09 16:24:00+00:00,33.0,16.51,31.0,19.57,13.53,47.59359,-54.27349
2024-03-09 16:34:00+00:00,32.0,17.96,34.0,20.15,13.53,47.59359,-54.27349
2024-03-09 16:44:00+00:00,31.0,17.4,35.0,21.29,13.53,47.59359,-54.27349
2024-03-09 16:54:00+00:00,35.0,17.54,33.0,20.59,13.53,47.59359,-54.27349
2024-03-09 17:04:00+00:00,34.0,18.45,38.0,21.26,13.53,47.59359,-54.27349
2024-03-09 17:14:00+00:00,38.0,16.11,38.0,20.58,13.6,47.59359,-54.27349
2024-03-09 17:24:00+00:00,37.0,15.51,43.0,18.4,13.6,47.59359,-54.27349
2024-03-09 17:34:00+00:00,35.0,16.84,32.0,20.61,13.6,47.59359,-54.27349
2024-03-09 17:44:00+00:00,38.0,17.6,41.0,20.85,13.6,47.59359,-54.27349
2024-03-09 17:54:00+00:00,32.0,16.23,29.0,19.91,13.6,47.59359,-54.27349
2024-03-09 18:04:00+00:00,34.0,17.08,45.0,19.5,13.6,47.59359,-54.27349
2024-03-09 18:14:00+00:00,32.0,16.58,45.0,19.24,13.53,47.59359,-54.27349
2024-03-09 18:24:00+00:00,36.0,14.69,35.0,17.58,13.53,47.59359,-54.27349
2024-03-09 18:34:00+00:00,38.0,16.35,34.0,19.19,13.53,47.59359,-54.27349
2024-03-09 18:44:00+00:00,35.0,15.27,29.0,17.49,13.53,47.59359,-54.27349
2024-03-09 18:54:00+00:00,38.0,16.39,40.0,18.66,13.53,47.59359,-54.27349
2024-03-09 19:04:00+00:00,36.0,16.18,46.0,18.45,13.53,47.59359,-54.27349
2024-03-09 19:14:01+00:00,34.0,16.71,34.0,18.6,13.53,47.59359,-54.27349
2024-03-09 19:24:01+00:00,37.0,15.05,37.0,16.61,13.53,47.59359,-54.27349
2024-03-09 19:34:01+00:00,34.0,16.39,33.0,18.48,13.53,47.59359,-54.27349
2024-03-09 19:44:01+00:00,35.0,15.01,35.0,17.02,13.53,47.59359,-54.27349
2024-03-09 19:54:01+00:00,38.0,16.3,41.0,19.44,13.53,47.59359,-54.27349
2024-03-09 20:04:01+00:00,32.0,16.03,30.0,17.97,13.53,47.59359,-54.27349
2024-03-09 20:14:00+00:00,34.0,16.08,34.0,18.06,13.29,47.59359,-54.27349
2024-03-09 20:24:00+00:00,33.0,16.15,34.0,17.73,13.29,47.59359,-54.27349
2024-03-09 20:34:00+00:00,33.0,14.96,31.0,17.47,13.29,47.59359,-54.27349
2024-03-09 20:44:00+00:00,34.0,15.87,30.0,18.8,13.29,47.59359,-54.27349
2024-03-09 20:54:00+00:00,29.0,14.91,34.0,17.03,13.29,47.59359,-54.27349
2024-03-09 21:04:00+00:00,31.0,14.85,34.0,17.14,13.29,47.59359,-54.27349
2024-03-09 21:14:00+00:00,31.0,15.46,32.0,18.13,13.13,47.59359,-54.27349
2024-03-09 21:24:00+00:00,32.0,14.62,28.0,19.8,13.13,47.59359,-54.27349
2024-03-09 21:34:00+00:00,31.0,13.59,30.0,16.06,13.13,47.59359,-54.27349
2024-03-09 21:44:00+00:00,31.0,12.58,34.0,14.41,13.13,47.59359,-54.27349
2024-03-09 21:54:00+00:00,34.0,13.74,35.0,15.58,13.13,47.59359,-54.27349
2024-03-09 22:04:00+00:00,32.0,13.5,35.0,15.13,13.13,47.59359,-54.27349
2024-03-09 22:14:00+00:00,34.0,14.19,37.0,16.27,12.49,47.59359,-54.27349
2024-03-09 22:24:00+00:00,29.0,13.41,35.0,14.66,12.49,47.59359,-54.27349
2024-03-09 22:34:00+00:00,33.0,13.23,36.0,14.81,12.49,47.59359,-54.27349
2024-03-09 22:44:00+00:00,32.0,11.98,25.0,14.04,12.49,47.59359,-54.27349
2024-03-09 22:54:00+00:00,34.0,11.89,39.0,14.05,12.49,47.59359,-54.27349
2024-03-09 23:04:00+00:00,33.0,13.81,35.0,15.29,12.49,47.59359,-54.27349
2024-03-09 23:14:00+00:00,29.0,13.5,32.0,15.13,12.25,47.59359,-54.27349
2024-03-09 23:24:00+00:00,33.0,13.29,32.0,15.04,12.25,47.59359,-54.27349
2024-03-09 23:34:00+00:00,36.0,13.38,41.0,15.58,12.25,47.59359,-54.27349
2024-03-09 23:44:00+00:00,39.0,15.01,48.0,16.94,12.25,47.59359,-54.27349
2024-03-09 23:54:00+00:00,41.0,12.2,42.0,14.56,12.25,47.59359,-54.27349
